Flag for Guadeloupe Weather past 2 weeks in Basse-Terre, Guadeloupe

Now
81 °F

Clear.


Feels Like: 86 °F
Forecast: 78 / 83 °F
Wind: 6 mph from Southeast

Location: Le Raizet - Guadeloupe

Current Time: Aug 23, 2014 at 12:26:25 AM

Latest Report: Aug 23, 2014 at 12:00 AM


Visibility: N/A

Pressure: 29.95 "Hg

Humidity: 84%

Dew point: 75 °F

Location of Basse-TerreLocation

Historic Weather in Basse-Terre — Graph

°F

Basse-Terre temperature yesterday

Maximum temperature yesterday: 84 °F (at 2:30 PM)
Minimum temperature yesterday: 77 °F (at 12:00 AM)
Average temperature yesterday: 80 °F

Past Weeks' High & Low Weather Summary

 TemperatureHumidityPressure
High90 °F (Aug 12, 12:30 PM)94% (Aug 8, 5:00 AM)30.09 "Hg (Aug 8, 5:00 AM)
Low73 °F (Aug 8, 6:30 AM)49% (Aug 14, 2:30 PM)29.83 "Hg (Aug 21, 3:30 PM)
Average81 °F76%29.98 "Hg
* Reported Aug 7 11:00 PM — Aug 22 11:30 PM, Basse-Terre, Weather by CustomWeather, © 2014

Note: Actual official high and low records may vary slightly from our data, if they occured in-between our weather recording intervals... More about our weather records

Advertising

Basse-Terre weather history for previous 24 hours

 ConditionsComfort  
Time TempWeatherWind HumidityBarometerVisibility
11:30 PM
Aug 22
81 °FOvercast.6 mph84%29.95 "HgN/A
11:00 PM81 °FClear.5 mph84%29.95 "HgN/A
10:30 PM81 °FClear.7 mph84%29.95 "HgN/A
10:00 PM81 °FClear.9 mph84%29.95 "HgN/A
9:30 PM81 °FMostly cloudy.6 mph84%29.95 "HgN/A
9:00 PM81 °FPartly cloudy.5 mph84%29.95 "HgN/A
8:30 PM81 °FMostly cloudy.6 mph84%29.95 "HgN/A
8:00 PM81 °FMostly cloudy.6 mph84%29.95 "HgN/A
7:30 PM81 °FOvercast.6 mph79%29.92 "HgN/A
7:00 PM81 °FPartly cloudy.3 mph79%29.92 "HgN/A
6:30 PM82 °FPartly cloudy.6 mph74%29.89 "HgN/A
6:00 PM82 °FBroken clouds.6 mph74%29.89 "HgN/A
5:30 PM82 °FBroken clouds.6 mph74%29.89 "HgN/A
5:00 PM82 °FBroken clouds.7 mph74%29.89 "HgN/A
4:30 PM82 °FBroken clouds.9 mph74%29.89 "HgN/A
4:00 PM82 °FBroken clouds.12 mph74%29.89 "HgN/A
3:30 PM82 °FBroken clouds.15 mph74%29.89 "HgN/A
3:00 PM84 °FBroken clouds.15 mph70%29.89 "HgN/A
2:30 PM84 °FBroken clouds.15 mph70%29.89 "HgN/A
2:00 PM82 °FBroken clouds.12 mph79%29.89 "HgN/A
1:30 PM82 °FBroken clouds.12 mph84%29.89 "HgN/A
1:00 PM81 °FLight rain. Broken clouds.9 mph84%29.92 "Hg3 mi
12:30 PM81 °FLight rain. Broken clouds.12 mph84%29.92 "Hg3 mi
12:00 PM79 °FLight rain. Broken clouds.13 mph84%29.95 "Hg3 mi
11:20 AM81 °FLight rain. Broken clouds.13 mph84%29.92 "Hg3 mi
11:00 AM81 °FBroken clouds.13 mph84%29.95 "HgN/A
10:30 AM79 °FBroken clouds.9 mph94%29.95 "HgN/A
10:07 AM77 °FLight rain. Broken clouds.8 mph94%29.95 "Hg4 mi
9:30 AM77 °FLight rain. Broken clouds.10 mph89%29.95 "Hg4 mi
9:00 AM77 °FRain. Broken clouds.13 mph89%29.95 "Hg4 mi
8:30 AM77 °FRain. Broken clouds.14 mph89%29.95 "Hg4 mi
8:00 AM79 °FBroken clouds.14 mph84%29.95 "HgN/A
7:30 AM77 °FBroken clouds.15 mph89%29.92 "HgN/A
7:00 AM79 °FBroken clouds.14 mph84%29.92 "HgN/A
6:30 AM79 °FBroken clouds.7 mph89%29.89 "HgN/A
6:00 AM77 °FRain. Partly sunny.7 mph89%29.89 "Hg6 mi
5:30 AM77 °FPassing clouds.9 mph89%29.89 "HgN/A
5:00 AM77 °FPartly cloudy.8 mph89%29.86 "HgN/A
4:30 AM79 °FPartly cloudy.7 mph84%29.86 "HgN/A
4:00 AM79 °FPartly cloudy.6 mph84%29.86 "HgN/A
3:30 AM79 °FPartly cloudy.8 mph84%29.86 "HgN/A
3:00 AM77 °FMostly cloudy.5 mph89%29.86 "HgN/A
2:30 AM77 °FPartly cloudy.5 mph89%29.86 "HgN/A
2:00 AM79 °FLight rain. Partly cloudy.6 mph89%29.86 "HgN/A
1:30 AM79 °FLight rain. Partly cloudy.3 mph89%29.86 "HgN/A
1:00 AM79 °FOvercast.2 mph89%29.86 "HgN/A
12:30 AM79 °FClear.3 mph89%29.89 "HgN/A
12:00 AM77 °FPassing clouds.3 mph94%29.89 "HgN/A
Weather by CustomWeather, © 2014

See weather overviewHow to use our weather pages